Wind_Speed
37 33 32 35 39 42 45 46 46 46 45 44 45 47 48 44 42 44 44 42 44 46 46 46 42 37 35 37 38 40 42 42 42 43 44 44 44 42 41 40 39 38 37 36 35 33 32 32 32 31 29 29 28 28 28 27 25 23 21 22 24 26 27 25 24 24 24 25 26 26 26 26 27 26 26 24 23 23 23 22 23 24 24 24 24 23 22
40 38 35 35 38 41 43 44 45 45 44 45 47 49 48 45 43 44 44 42 44 45 45 47 47 43 38 38 39 41 42 42 43 44 44 45 45 44 43 41 40 40 40 40 38 37 36 36 35 34 33 32 31 30 31 30 27 25 23 21 22 25 26 27 26 26 26 26 27 27 28 28 29 29 28 26 25 25 24 23 24 24 24 24 24 24 24
38 40 39 37 37 39 41 43 43 44 45 45 46 47 47 46 44 44 45 45 45 45 44 45 45 44 43 42 41 41 42 43 43 44 44 46 46 46 46 44 43 43 43 42 41 39 39 38 38 37 36 35 34 33 32 31 30 28 25 24 23 23 25 27 28 28 27 27 26 26 26 28 28 29 29 29 28 26 25 25 24 24 24 24 25 25 25
36 38 39 40 39 37 39 42 42 43 43 44 45 47 48 47 45 43 45 47 46 45 44 42 40 41 44 45 45 43 43 43 44 44 44 45 46 47 48 47 46 46 45 45 44 42 40 40 40 40 39 38 37 36 35 34 32 31 30 28 26 25 25 27 28 29 29 28 27 26 26 27 27 28 30 31 30 29 28 27 27 26 25 25 25 25 26
33 36 37 39 39 38 38 40 42 43 43 44 47 48 47 47 46 44 44 47 47 44 42 41 41 41 43 45 46 45 43 44 44 44 44 44 45 47 48 48 48 47 47 47 46 44 43 42 42 42 41 41 40 39 39 37 36 35 34 33 31 30 28 28 29 29 30 30 30 29 29 28 27 28 30 31 31 30 30 30 29 28 27 26 25 26 26
30 34 35 36 37 37 38 40 42 43 44 45 46 46 46 48 48 47 47 48 47 43 41 42 44 45 43 43 45 45 44 44 44 44 44 44 44 45 47 48 48 48 48 48 47 47 46 44 44 44 44 43 43 42 42 41 39 38 38 37 35 34 33 31 31 31 32 32 31 31 31 31 30 29 29 31 32 32 32 32 31 30 29 28 28 27 26
28 32 32 34 37 38 41 42 40 40 42 45 46 47 47 47 49 49 50 50 49 47 46 47 47 46 46 45 45 46 46 46 45 45 44 44 44 45 46 47 48 49 49 48 48 49 48 47 46 46 46 46 45 44 44 44 43 42 41 40 38 37 37 35 34 34 34 34 32 32 33 33 32 31 29 30 32 33 34 34 33 32 31 30 30 29 28
30 33 32 33 37 38 40 41 39 39 40 43 45 46 46 46 47 49 50 52 51 51 52 51 49 48 47 47 48 48 48 47 47 47 46 45 45 45 46 47 48 48 48 48 49 50 50 50 49 48 48 48 47 46 46 46 46 45 44 43 42 41 41 40 39 37 36 36 35 35 35 34 34 33 32 32 33 34 35 35 34 33 32 31 31 31 30
31 33 32 32 35 36 37 39 40 39 39 40 42 45 46 46 48 49 51 52 52 52 53 52 51 50 49 47 49 50 50 49 49 48 48 47 47 47 47 47 48 48 48 48 48 49 50 50 50 50 50 49 49 48 47 47 47 48 47 46 44 45 44 43 42 40 38 38 38 37 36 34 34 35 34 33 31 31 32 33 32 31 30 30 30 30 30
29 32 32 31 33 36 37 38 40 40 39 39 40 43 45 45 46 48 50 50 50 52 53 52 51 52 49 49 50 51 51 51 50 49 49 49 48 48 48 48 48 48 48 48 48 48 48 49 49 49 50 50 50 49 48 48 48 48 49 48 47 47 46 44 42 41 40 39 39 38 37 36 36 36 35 33 30 29 30 30 29 30 30 29 30 31 30
28 30 30 30 32 36 36 36 38 39 39 39 40 42 44 44 45 46 49 50 49 50 51 52 52 51 49 51 54 53 51 51 52 51 51 50 50 50 50 50 49 48 48 49 48 48 48 48 48 48 48 49 49 49 49 49 49 49 49 49 49 50 49 46 45 44 44 43 43 42 40 39 38 37 35 34 33 32 32 29 28 30 31 30 29 31 32
28 29 30 30 32 34 34 35 37 38 39 40 41 43 45 46 45 44 46 48 49 49 50 50 50 50 51 54 57 56 52 50 51 51 52 52 52 52 52 52 50 50 50 50 49 49 49 48 48 47 47 47 48 48 48 49 50 50 50 50 50 51 51 51 49 48 47 46 45 46 45 43 40 39 37 35 34 34 33 31 30 30 32 30 29 29 30
30 31 32 32 31 31 32 34 36 36 37 39 40 43 46 46 45 45 46 48 48 48 49 48 49 52 53 55 57 56 53 51 51 51 52 52 52 53 53 53 53 53 52 51 50 50 50 49 49 49 48 48 47 48 48 48 49 50 50 51 51 51 52 53 52 52 51 49 46 46 46 46 43 40 37 35 36 36 34 33 32 31 31 32 30 29 29
33 32 33 32 32 32 32 33 34 35 36 38 40 41 42 44 45 45 46 48 48 47 47 48 50 52 52 52 54 55 55 54 53 53 54 54 53 54 54 54 55 55 54 53 53 52 52 52 52 51 50 50 49 49 49 48 49 49 50 51 51 51 52 53 54 54 54 54 52 49 46 46 45 42 39 36 36 36 35 35 35 34 33 33 32 30 30
33 34 34 34 34 35 34 33 34 35 36 38 38 38 39 41 43 44 45 47 47 47 47 48 49 50 50 51 53 55 56 56 55 56 57 57 56 56 56 56 56 56 56 55 55 55 55 54 54 54 53 52 51 51 51 51 51 50 50 51 51 51 52 54 55 55 55 56 56 54 51 49 46 45 43 40 38 36 34 35 36 36 35 34 33 33 32
28 32 35 36 37 37 36 35 36 36 36 36 37 37 38 39 41 42 43 44 45 46 47 48 49 49 50 50 52 54 56 56 55 56 57 58 59 59 59 59 59 58 57 57 57 57 57 57 57 56 56 55 54 54 54 54 54 53 52 52 52 53 53 54 55 56 56 56 56 55 55 54 51 48 46 44 43 40 37 36 36 36 36 36 36 35 34
24 26 28 32 36 38 38 38 38 37 35 36 39 40 39 39 40 41 41 42 43 44 45 46 47 48 48 49 50 52 54 55 55 56 57 58 59 60 61 61 61 61 60 60 59 59 60 60 60 59 59 58 57 57 57 57 57 56 56 55 54 54 55 55 56 56 56 57 56 56 55 55 54 52 50 47 46 44 42 40 39 38 37 37 38 38 37
26 26 25 26 30 33 36 37 37 36 36 38 40 41 41 42 42 42 42 42 43 43 44 45 45 46 47 47 48 50 52 53 54 54 56 57 58 59 61 62 63 63 63 63 62 62 62 63 63 63 62 61 60 59 60 60 60 60 59 58 58 57 57 57 57 58 57 57 57 57 56 55 54 54 52 51 49 47 44 43 42 41 39 39 40 41 41
29 27 27 26 26 27 29 30 31 33 35 38 40 41 42 43 43 43 44 44 44 45 45 46 46 46 46 47 47 49 50 51 51 52 53 55 56 57 59 61 62 64 65 65 65 65 64 65 66 66 65 64 63 63 62 62 63 63 62 62 61 60 60 60 60 60 60 59 59 58 58 57 56 54 53 52 51 50 48 46 44 43 42 43 43 43 43
32 30 29 28 28 28 27 27 27 28 30 33 35 37 39 41 41 42 43 44 45 46 46 47 48 48 48 48 48 49 50 51 51 51 51 52 53 55 57 58 60 62 64 65 67 67 67 67 67 68 67 67 67 66 65 65 65 65 65 65 64 63 63 63 62 62 62 62 61 61 60 59 58 56 55 53 52 51 51 50 48 47 46 46 46 45 44
33 33 32 31 30 30 29 28 28 28 27 28 29 30 32 34 36 37 39 41 42 44 45 47 48 49 49 50 51 51 52 53 53 53 53 53 53 54 55 56 57 59 61 63 65 67 68 69 69 69 70 69 69 69 69 68 68 67 67 67 67 66 66 66 65 65 65 64 63 63 62 62 61 59 57 56 54 53 52 51 50 50 50 49 49 48 46
33 34 35 35 34 32 31 31 31 30 30 29 29 29 30 31 31 32 33 35 36 38 40 42 44 46 47 49 50 51 53 55 55 55 55 56 56 56 57 57 58 58 59 61 62 64 66 68 69 70 71 71 72 72 72 72 71 70 70 69 69 69 68 68 68 68 68 67 66 65 64 64 63 62 60 59 57 55 54 52 51 51 51 50 50 49 48
35 35 35 36 36 35 35 35 33 33 33 33 32 32 32 33 33 33 33 34 34 35 36 37 39 41 42 44 46 48 50 52 54 56 56 57 58 58 59 59 60 60 61 62 62 63 64 66 68 69 70 72 73 74 74 74 74 74 73 72 71 70 70 70 70 70 70 70 69 69 67 66 66 65 63 62 60 58 56 55 53 52 52 51 50 50 49
36 36 36 37 36 36 37 36 36 35 35 34 33 34 35 35 35 35 36 36 36 37 37 38 39 39 40 41 43 44 45 48 50 52 53 55 56 58 59 59 60 61 62 63 64 65 66 66 67 68 69 71 72 74 75 76 76 76 76 75 74 73 73 72 72 72 73 72 72 71 71 70 69 68 66 65 64 62 60 58 56 54 53 52 50 50 50
35 36 37 37 36 35 35 35 36 37 37 36 35 37 38 38 38 39 39 39 39 40 40 41 41 42 42 42 42 43 43 44 45 47 48 49 51 53 55 57 58 60 61 63 64 66 67 68 69 70 70 71 72 74 75 77 78 78 78 77 77 76 75 75 75 74 74 74 74 74 73 73 72 71 70 69 67 65 64 62 59 57 55 54 52 50 50
33 35 38 39 37 35 35 36 37 38 39 38 38 39 41 42 42 42 42 42 43 42 42 43 44 44 44 44 43 43 43 43 44 44 45 46 48 49 52 54 56 57 59 61 63 65 66 68 70 71 72 73 74 75 76 77 78 79 79 79 79 78 78 78 78 77 76 76 76 76 76 75 74 74 73 73 71 69 67 65 63 61 58 56 55 53 52
31 33 36 39 39 37 36 38 39 38 37 37 37 38 40 42 42 42 43 43 44 44 45 46 46 46 46 46 45 45 45 45 45 46 46 47 48 50 51 53 55 56 58 59 61 63 65 67 69 70 72 74 76 77 78 79 79 80 80 80 80 80 79 79 80 80 79 78 78 77 77 77 77 76 76 76 75 74 72 69 67 64 61 59 58 57 55
26 26 28 31 33 33 33 36 38 37 36 36 36 35 37 38 40 41 41 42 42 42 42 44 46 48 48 48 48 48 47 47 48 48 49 50 51 52 53 54 55 57 58 59 60 62 63 65 67 68 70 72 74 77 79 81 82 82 82 82 82 81 80 80 81 81 82 81 81 80 79 78 79 79 78 78 78 77 75 74 71 68 66 63 62 60 59
23 23 24 25 27 28 30 33 34 34 34 35 35 34 35 36 37 39 41 42 42 41 41 41 43 45 47 48 48 48 48 48 49 50 51 51 52 53 54 55 56 57 59 60 61 62 63 64 66 67 68 70 72 75 78 81 82 83 84 84 83 82 82 81 81 82 83 83 83 83 82 81 80 80 79 79 79 79 79 77 76 73 70 67 65 64 62
21 22 23 24 25 27 30 32 32 31 31 32 33 33 34 35 36 38 40 41 41 42 42 42 42 43 44 45 46 46 46 47 48 49 50 51 52 53 55 56 57 59 60 61 63 64 64 66 67 68 69 70 71 73 76 79 81 83 85 86 86 85 83 83 82 83 83 84 84 85 85 84 83 82 81 80 80 81 81 80 78 77 75 72 69 67 65
21 22 24 25 26 28 30 32 32 31 31 32 32 33 34 34 35 37 38 38 39 40 40 41 41 42 42 43 43 44 45 46 48 49 50 51 52 54 56 57 59 60 61 63 64 65 66 67 68 69 70 71 71 72 74 76 78 80 83 85 87 87 86 85 85 84 84 84 85 85 86 86 86 85 84 82 81 81 82 82 81 79 78 76 73 71 69
20 21 23 24 26 27 29 30 30 31 31 31 32 32 33 34 35 35 36 36 37 37 37 38 38 39 39 40 41 43 44 46 47 47 48 50 51 53 55 57 58 59 60 61 63 64 65 66 68 69 71 72 73 73 74 75 76 78 79 82 85 86 87 87 87 86 86 85 85 86 86 87 87 87 86 85 83 82 83 83 83 81 80 79 77 74 72
21 22 23 24 25 25 26 27 28 29 29 30 30 31 32 32 33 34 34 34 34 35 35 36 37 38 39 40 41 42 43 43 44 44 45 46 48 49 51 53 54 55 56 58 59 61 62 64 66 68 70 71 73 74 74 74 75 75 77 78 80 82 84 85 86 87 87 87 86 86 86 87 88 88 88 87 86 85 84 83 83 83 82 81 79 78 75
22 22 23 24 25 26 26 27 27 28 28 29 29 30 32 33 34 34 34 35 35 36 37 37 38 39 39 39 39 40 40 40 40 40 41 43 44 46 48 49 51 52 53 54 55 57 59 61 63 66 68 70 71 73 73 73 74 74 74 74 75 77 79 81 82 84 85 86 87 87 87 87 88 88 89 89 88 88 86 84 83 83 83 82 81 80 78
23 23 24 24 25 27 28 29 29 29 30 31 31 32 34 35 36 36 36 36 36 37 37 37 37 37 36 36 37 37 37 37 37 38 39 41 42 44 45 47 48 49 49 50 51 52 54 56 59 62 64 66 67 68 69 69 69 69 69 70 71 71 72 74 76 77 79 80 82 84 86 87 88 88 89 90 90 89 88 86 84 83 82 82 82 81 81
26 26 27 27 27 28 29 30 30 30 31 32 33 33 34 34 35 35 34 34 34 35 34 34 34 34 34 35 35 35 35 35 36 37 39 39 39 40 42 43 44 45 46 46 47 48 49 50 52 56 58 59 60 61 61 61 61 62 62 62 64 65 66 67 68 70 71 73 75 78 82 85 87 88 89 90 90 90 89 88 86 84 83 82 82 82 81
28 28 29 29 29 30 31 32 32 32 33 33 34 34 34 33 33 32 31 32 32 33 32 32 32 33 33 34 34 34 34 35 36 37 37 37 38 38 39 40 40 41 42 42 43 43 44 45 47 48 50 51 52 53 54 55 55 54 54 55 57 58 59 60 61 63 65 66 68 71 74 77 81 84 86 87 88 89 90 89 89 87 85 83 82 82 81
30 30 31 30 29 30 32 33 33 33 34 34 35 35 35 34 33 32 31 31 32 32 32 32 32 33 33 32 32 33 34 34 35 35 35 36 36 37 37 37 36 37 37 38 38 38 38 40 41 41 41 42 44 45 46 48 49 48 49 50 51 52 54 55 57 59 61 62 63 65 66 69 73 77 81 83 85 87 89 90 90 89 87 85 83 82 81
32 32 32 32 30 30 31 31 32 33 34 34 35 36 35 34 34 33 32 32 32 31 31 32 32 32 31 31 31 32 32 31 31 31 32 33 35 35 35 34 34 34 34 33 33 33 34 35 36 36 36 36 37 39 40 42 43 43 43 44 46 48 50 52 54 56 58 60 61 62 62 63 65 69 72 76 80 83 86 88 89 89 88 86 85 83 82
35 34 34 34 34 33 32 31 31 32 33 33 34 35 34 33 32 32 31 30 30 30 30 31 31 31 30 30 30 29 28 28 28 29 31 33 34 33 32 32 31 31 30 30 29 30 31 32 32 32 33 32 32 33 35 37 37 38 39 41 43 45 47 50 52 54 56 57 59 59 59 59 60 62 64 68 73 77 81 84 86 87 88 88 86 85 83
38 37 37 37 37 39 39 36 33 32 32 32 32 33 33 31 30 29 29 29 29 29 29 30 30 30 30 30 29 28 27 27 27 29 31 33 33 31 30 30 29 29 28 28 28 29 29 30 31 32 32 32 31 32 33 34 35 36 37 39 42 44 47 49 51 52 54 56 58 58 59 58 58 58 59 61 66 71 75 79 82 84 86 88 87 86 85
42 42 41 39 37 39 40 39 35 32 31 30 29 30 31 31 29 29 29 29 29 28 28 28 28 28 29 29 28 28 28 28 28 30 32 33 32 29 27 27 28 28 27 27 28 27 28 29 31 32 34 34 34 34 35 35 36 37 39 40 42 44 47 49 50 51 52 55 56 57 58 58 59 58 58 59 61 64 69 73 77 80 83 86 87 87 86
44 44 43 42 39 38 38 39 39 38 36 34 32 31 31 31 31 31 31 31 30 28 28 28 28 28 28 28 28 29 29 29 29 31 33 32 30 27 25 25 27 28 27 26 26 25 26 28 30 32 34 35 34 34 35 36 37 38 40 42 43 45 47 49 51 52 53 53 53 54 56 57 58 58 59 58 58 59 63 68 72 76 79 82 85 86 86
45 44 44 44 42 37 34 35 39 41 40 39 37 35 34 33 32 31 32 32 31 29 28 29 29 29 29 29 29 29 29 29 29 31 31 30 29 27 24 23 24 26 26 25 23 23 24 25 27 28 29 30 30 29 30 31 32 34 37 39 41 42 43 45 48 50 51 51 51 51 53 54 55 56 57 56 56 56 59 63 68 72 75 78 81 84 85
41 41 41 43 43 40 36 35 37 39 40 41 40 38 36 36 35 33 32 32 31 29 29 29 30 30 30 30 29 29 28 27 28 29 29 28 28 27 24 22 21 22 22 22 20 20 21 22 22 22 22 22 23 25 28 30 31 32 33 35 36 37 39 41 43 45 46 46 46 47 49 52 53 54 54 53 53 53 55 59 63 67 71 74 78 80 82
34 36 37 38 39 39 37 34 34 34 35 37 38 37 36 37 37 36 33 31 30 30 29 30 31 32 32 31 29 28 27 26 26 27 27 27 26 26 24 22 19 18 18 18 18 18 19 19 19 19 18 18 19 22 26 30 32 32 31 32 33 34 36 37 39 40 41 42 42 43 45 48 49 48 48 49 49 50 52 55 58 62 66 70 73 75 78
25 29 32 35 36 35 32 29 27 27 29 32 34 36 36 37 38 37 34 31 29 29 30 30 31 31 31 30 28 26 25 25 25 26 27 26 25 24 24 22 20 19 19 18 17 17 18 18 18 18 18 18 19 20 22 25 28 30 30 30 32 34 35 36 36 37 39 39 40 41 42 43 44 44 45 45 46 47 49 51 54 57 61 64 67 69 72
19 21 26 30 31 30 28 25 24 24 25 28 31 33 34 35 35 36 35 32 30 29 29 29 29 28 28 27 25 24 23 23 25 26 26 25 25 23 22 21 21 20 19 18 17 17 18 18 18 18 18 18 18 19 19 21 24 27 28 29 31 33 34 35 36 38 39 39 40 41 42 43 44 45 45 45 46 46 47 48 50 52 56 58 61 63 65
13 15 18 21 22 22 22 22 23 24 25 26 27 29 30 31 31 31 31 30 30 29 29 27 26 25 24 23 22 21 21 22 24 25 25 25 24 23 21 20 19 18 17 16 16 16 17 18 17 17 17 17 18 18 18 19 21 24 26 28 29 31 33 33 34 35 36 37 39 40 42 43 44 45 45 45 46 46 46 46 47 49 51 54 55 57 58
6 8 11 13 15 15 15 17 20 22 23 25 25 27 28 28 27 25 25 25 26 27 26 25 23 22 21 19 19 19 20 21 24 25 25 24 23 22 21 19 18 16 15 14 15 15 16 16 16 16 16 16 17 17 18 19 21 22 25 26 27 30 31 32 32 33 33 35 36 38 40 41 43 44 44 44 44 44 44 44 45 46 47 49 51 52 54
7 7 7 8 9 10 10 12 14 15 17 19 20 21 21 22 21 21 21 22 23 23 23 21 20 18 17 17 17 18 19 21 23 25 24 23 22 21 20 18 16 14 13 13 14 14 15 15 15 14 14 15 16 17 18 19 19 20 23 24 26 27 28 30 31 33 34 34 35 36 37 38 40 41 42 42 43 43 43 43 43 43 44 45 47 49 51
9 7 6 6 6 7 8 9 10 11 12 13 14 15 16 17 18 18 19 20 20 20 20 19 17 16 15 15 16 17 19 21 23 25 24 22 20 20 19 17 15 13 12 12 13 13 14 14 14 13 13 14 15 15 16 17 15 16 20 23 25 26 26 28 30 32 32 32 33 33 34 35 37 38 39 40 42 43 44 44 44 43 43 43 43 45 47
Wind_Direction
215 219 221 219 218 220 222 223 223 222 222 222 222 222 221 218 219 224 227 227 229 232 233 232 228 224 225 224 221 220 220 219 219 220 220 222 224 225 225 226 227 228 232 234 234 235 237 239 243 246 249 252 255 258 262 264 262 255 246 238 236 236 236 237 237 236 237 238 235 234 236 237 238 239 240 241 242 244 247 249 250 249 246 242 241 239 237
217 219 222 222 220 221 222 222 223 223 222 222 223 224 222 221 222 226 228 229 230 231 233 233 230 227 227 226 223 221 220 219 219 218 219 220 221 223 223 223 224 225 227 230 232 234 237 239 240 243 246 249 251 254 257 261 263 262 256 247 240 238 239 239 240 240 241 239 235 234 234 234 234 235 237 238 239 241 243 244 247 249 249 247 245 243 242
221 222 223 223 222 221 221 222 222 222 223 223 224 225 224 223 224 227 228 230 232 231 231 233 232 230 229 228 227 224 222 221 221 219 219 220 221 222 223 223 222 223 225 227 229 232 234 237 239 240 242 245 247 250 252 256 260 262 261 255 248 244 243 243 243 243 243 241 238 238 239 239 235 233 235 236 236 237 239 241 243 245 247 249 248 246 245
224 223 225 226 226 224 223 222 222 222 223 223 224 224 224 223 223 227 229 231 232 233 231 232 233 233 230 229 229 228 227 226 224 223 222 222 222 223 224 224 224 224 226 227 229 230 231 233 235 237 239 241 244 247 249 251 254 257 259 260 256 251 247 246 246 246 245 245 243 243 244 245 243 239 237 236 234 234 235 237 239 240 241 244 246 247 247
227 225 224 228 229 229 228 225 222 221 222 223 224 224 225 224 223 225 230 232 231 230 231 231 233 234 232 230 230 231 231 230 229 227 227 226 225 225 226 227 227 227 228 229 230 231 232 232 234 235 237 239 241 243 246 248 250 251 253 256 257 256 253 250 248 247 247 246 245 246 245 245 246 247 246 244 239 235 234 234 235 235 236 238 239 243 245
232 228 224 227 230 229 230 228 223 221 223 224 224 225 225 226 225 225 228 232 232 229 231 233 233 234 233 232 233 234 235 234 233 232 230 229 228 228 228 229 231 231 231 231 232 233 233 233 234 235 236 237 239 241 243 246 248 249 250 252 254 256 256 252 250 249 249 248 247 248 249 246 243 245 250 252 248 241 237 236 235 233 234 234 234 236 239
233 233 226 226 230 229 229 229 225 224 226 226 225 225 225 227 228 227 227 231 233 232 235 236 235 236 237 237 238 239 239 238 238 237 235 233 231 231 230 231 232 233 234 234 234 235 235 235 235 235 236 237 238 239 242 244 246 248 250 251 251 253 254 253 251 249 250 251 249 248 249 249 246 244 245 248 249 245 239 237 236 234 233 234 233 233 235
230 237 233 230 232 232 231 230 228 227 228 228 227 227 226 227 229 229 228 230 231 233 236 236 235 238 240 240 241 242 242 242 241 240 239 237 235 234 233 233 234 235 235 235 236 236 237 237 236 236 237 237 238 238 240 242 245 246 248 250 250 252 253 253 252 250 249 250 251 249 249 250 250 249 246 243 243 246 245 242 239 237 237 236 235 233 233
228 236 239 237 236 236 234 231 230 230 230 231 231 231 229 229 230 230 230 230 231 232 235 236 235 238 240 241 242 242 242 242 242 242 241 240 238 237 236 235 236 236 237 237 237 237 238 238 238 237 237 238 238 238 239 240 243 245 247 249 250 251 252 252 253 252 250 249 250 250 250 250 249 250 249 245 244 248 251 249 247 248 250 250 248 244 240
229 233 238 240 239 238 235 233 232 232 232 232 233 234 233 232 233 234 233 233 233 234 235 236 236 238 240 242 241 240 241 241 242 242 243 242 241 240 239 238 238 238 239 239 238 238 238 239 239 238 238 238 238 238 238 239 240 242 245 246 248 250 251 252 252 253 252 251 251 251 251 250 249 251 252 251 250 250 250 249 249 251 253 253 253 254 252
232 232 234 237 240 239 236 235 235 235 234 233 233 235 235 233 234 236 236 236 236 236 237 237 237 238 241 242 240 238 239 241 242 243 243 243 243 242 242 241 240 240 241 240 239 239 239 239 239 239 238 238 238 238 237 237 238 240 242 244 246 248 250 251 251 252 253 253 253 254 254 252 251 252 252 252 252 251 248 246 244 246 248 246 246 249 252
235 235 233 235 241 243 240 238 237 236 236 235 234 236 236 235 234 235 237 238 238 239 239 239 239 239 241 242 240 237 238 242 244 244 245 245 244 244 243 242 242 243 243 242 241 241 240 240 240 239 239 239 238 238 237 236 237 238 239 241 243 245 248 249 250 250 252 253 252 253 255 255 253 251 249 249 251 252 251 247 245 247 249 246 245 248 251
236 238 236 234 238 243 241 239 238 236 236 236 235 235 237 236 235 236 237 238 238 239 240 240 241 241 242 243 243 240 240 242 243 244 245 245 245 245 244 243 243 244 244 243 243 243 242 242 242 241 240 239 239 239 238 237 236 237 238 239 240 242 244 247 248 248 250 251 252 252 254 256 256 254 250 248 248 249 250 248 247 248 249 246 244 247 250
236 238 239 238 238 239 240 240 240 238 236 236 236 236 238 238 237 238 239 239 238 238 239 240 241 242 243 244 245 243 242 242 242 243 244 244 244 245 245 245 245 245 245 245 245 244 243 243 243 243 242 241 240 240 239 238 237 236 237 238 238 239 241 243 245 247 248 250 251 252 253 255 256 257 255 253 250 248 248 248 248 247 248 247 246 246 247
235 235 236 237 239 241 241 241 241 240 238 239 240 240 239 239 239 239 240 240 239 239 239 240 241 242 242 243 244 244 244 244 244 244 245 245 245 245 244 244 244 245 246 246 246 246 245 244 244 244 243 243 242 241 240 239 238 237 236 236 237 237 238 240 242 245 247 249 251 252 252 253 254 256 257 256 254 252 251 251 250 248 248 248 248 246 245
236 236 236 236 238 241 242 240 241 241 241 242 244 242 241 240 241 241 242 242 241 240 241 241 242 242 242 243 243 244 244 245 245 245 245 246 246 246 245 245 244 244 245 246 247 247 246 245 244 244 244 243 243 242 242 241 240 238 237 236 236 236 237 238 240 242 245 248 250 251 252 253 254 254 255 255 255 255 254 253 253 252 251 249 249 248 246
233 235 237 237 237 239 241 241 242 242 241 240 241 242 242 241 242 243 243 243 243 243 243 243 243 243 243 244 244 244 245 246 245 245 245 245 246 247 247 246 245 245 245 245 245 246 247 246 245 245 244 244 244 243 243 243 242 240 239 237 237 236 236 237 238 240 242 245 247 249 251 252 253 253 253 253 254 255 254 254 254 254 253 252 250 250 248
235 234 236 237 237 238 240 241 241 241 239 239 240 242 242 241 242 243 244 244 244 245 245 245 245 244 244 245 244 244 245 246 246 246 245 246 246 246 247 247 246 246 246 245 245 246 246 247 246 245 245 244 244 244 244 244 243 242 241 240 238 237 237 237 238 239 240 242 244 246 248 250 251 252 252 252 252 253 253 254 254 254 254 254 252 251 249
238 238 237 236 236 237 239 239 239 239 240 240 242 242 242 242 243 243 244 244 245 245 246 247 247 247 247 247 246 246 246 247 247 247 247 247 247 247 247 247 247 247 247 247 247 246 246 247 247 246 246 245 244 244 244 244 244 244 243 242 240 239 238 238 238 239 240 240 242 244 246 247 249 250 251 252 252 252 252 252 252 253 253 253 253 253 253
239 239 238 236 235 236 237 238 238 238 238 239 240 242 243 244 244 244 245 245 245 245 246 247 248 248 249 249 249 249 249 249 250 249 249 249 248 248 248 248 248 248 248 248 248 248 248 247 247 247 247 246 246 245 244 244 244 245 244 243 242 241 241 240 239 239 240 241 242 243 245 246 248 249 250 251 251 252 252 252 252 252 253 253 253 255 256
241 240 240 238 237 236 236 236 236 236 236 237 238 240 242 243 243 244 245 245 246 246 247 248 249 250 250 250 250 250 251 251 252 252 252 252 252 251 251 250 250 249 249 249 249 249 249 249 248 248 248 247 247 246 245 244 244 244 244 244 244 243 243 242 241 240 241 241 242 243 244 246 247 248 249 250 251 251 252 252 253 253 254 255 254 254 255
241 240 239 239 239 239 237 236 236 236 237 237 237 238 240 241 241 242 243 244 244 245 246 247 248 249 251 251 252 252 252 253 253 254 254 254 254 254 254 253 253 253 252 251 250 250 250 250 250 249 249 248 248 248 247 246 245 244 244 244 244 244 244 243 243 242 242 242 243 243 244 245 247 248 248 250 251 251 252 252 253 253 254 256 256 256 255
241 240 240 239 239 239 239 238 237 237 237 237 237 238 240 240 240 241 241 242 242 243 244 245 246 247 249 250 251 252 253 253 254 255 255 255 255 256 256 256 255 255 255 254 253 252 252 251 251 250 250 250 249 249 248 247 246 245 244 244 244 244 244 244 244 244 244 243 243 244 244 245 246 248 248 249 250 250 251 251 252 253 254 255 257 258 258
243 241 241 241 240 240 241 241 240 240 240 239 239 240 241 241 242 242 243 243 243 244 244 244 245 246 247 249 250 252 253 254 255 256 256 257 257 257 257 257 257 257 257 256 256 255 254 253 252 252 251 251 250 250 249 248 247 247 246 245 243 243 244 245 245 245 245 244 244 244 245 245 246 247 248 249 249 250 250 251 251 252 253 254 255 257 258
247 243 242 242 241 241 242 244 244 244 243 241 240 241 242 242 242 242 243 244 245 245 245 246 246 246 247 248 250 252 253 255 256 257 258 259 259 259 259 259 258 258 257 257 257 257 257 256 255 254 253 252 251 251 250 250 249 248 247 246 245 244 243 244 244 245 245 245 245 245 245 245 246 247 248 248 249 249 250 250 250 251 252 253 254 256 257
256 250 245 243 242 241 240 242 243 244 244 243 240 240 241 242 242 243 243 244 246 247 247 247 247 247 247 248 249 251 253 255 257 258 259 260 261 261 261 261 261 261 260 259 258 258 258 257 257 256 256 255 254 253 251 250 250 249 248 247 246 245 244 244 244 244 245 246 246 246 246 246 246 247 248 249 249 249 249 249 249 249 249 251 252 254 255
260 254 246 242 242 241 241 242 244 245 246 247 244 242 243 244 245 246 247 248 249 249 250 250 249 249 249 250 250 252 254 255 257 258 260 262 263 263 263 263 263 263 263 262 261 260 259 259 258 257 257 257 256 255 254 252 251 250 249 248 247 246 245 245 244 243 244 244 245 246 247 247 246 246 247 249 250 250 250 250 249 248 248 249 250 252 253
257 255 248 242 241 241 242 245 246 246 247 248 248 247 246 246 247 248 249 249 250 251 252 252 251 251 251 251 252 253 255 256 257 259 261 263 264 263 263 263 263 264 264 264 263 262 262 261 260 259 258 258 257 256 255 254 253 252 251 249 248 246 246 246 245 244 244 243 244 245 245 246 247 247 247 248 249 251 251 252 251 250 249 248 249 250 251
251 251 249 244 241 240 242 245 246 246 247 249 250 249 248 247 247 248 248 249 250 252 253 253 252 251 251 252 253 255 256 258 259 261 263 263 264 263 263 263 263 263 264 264 264 264 263 263 262 261 260 259 258 257 256 255 254 253 253 252 250 248 247 246 246 246 245 244 243 243 244 245 246 247 248 248 248 250 251 252 252 252 251 250 250 250 251
247 247 245 243 241 239 240 244 248 249 250 250 250 250 249 248 249 250 250 251 252 253 254 254 254 253 254 255 256 258 259 260 261 262 262 263 264 264 264 264 265 265 265 265 265 265 264 264 263 262 261 260 259 258 257 256 255 254 254 253 252 251 249 248 247 246 246 245 244 244 243 243 244 245 247 248 248 249 250 251 252 253 253 252 251 251 251
248 247 246 245 244 244 245 248 251 251 250 250 250 250 250 251 251 252 253 253 254 254 255 255 256 256 257 258 259 260 260 261 262 263 264 265 266 267 267 268 267 267 267 266 266 266 265 264 263 263 262 261 260 259 258 257 256 255 255 254 253 252 251 250 249 247 246 246 245 245 244 244 243 243 245 246 248 248 249 250 250 251 253 253 253 253 253
254 251 248 247 247 247 248 249 250 250 250 249 249 249 250 251 252 252 253 253 253 253 254 255 255 256 258 259 260 262 263 264 265 267 268 269 270 270 270 269 269 268 267 266 265 265 264 263 263 262 262 262 261 260 259 258 258 257 256 255 254 253 252 252 251 250 248 247 246 245 245 245 244 244 243 244 246 247 248 249 249 250 251 252 253 253 253
263 259 257 254 252 250 250 250 250 250 250 249 249 249 250 250 251 251 252 252 253 254 255 256 257 258 260 262 263 264 266 267 269 270 271 271 272 272 271 270 269 268 266 265 264 263 262 262 261 261 261 262 261 261 260 259 258 257 256 255 254 253 252 252 252 251 250 249 247 246 245 245 245 245 244 243 244 245 246 248 249 249 250 250 252 252 253
267 265 263 261 259 257 255 253 251 251 251 250 249 249 249 250 251 251 253 254 256 257 258 259 260 261 262 263 263 265 267 268 269 270 272 273 274 275 275 274 273 271 268 266 264 262 261 260 259 259 259 260 261 261 260 260 259 258 256 255 254 253 252 252 251 251 251 250 249 248 246 245 245 245 245 244 244 243 244 246 247 248 249 249 250 250 251
268 266 264 262 261 260 258 256 254 253 252 251 251 251 252 253 254 255 256 257 259 259 259 260 260 261 261 261 263 265 266 267 270 272 275 276 278 279 279 277 276 273 270 268 266 263 261 259 258 258 258 258 259 260 260 259 259 258 256 255 253 252 251 250 250 250 250 250 250 249 248 247 245 244 244 244 244 243 243 244 245 246 247 248 248 249 249
270 268 266 263 261 259 258 257 256 255 254 253 254 254 255 256 257 258 258 258 258 259 259 259 259 259 260 262 263 264 265 268 272 275 276 277 279 281 282 280 276 273 270 268 267 265 263 260 259 257 257 257 257 258 258 257 257 256 255 253 252 250 249 248 248 248 248 248 248 249 249 248 247 245 244 244 244 244 244 243 243 244 245 246 247 247 248
270 268 266 265 263 261 260 259 258 256 255 255 255 256 256 257 258 259 260 259 258 258 258 258 258 259 261 263 263 264 267 271 274 276 276 278 280 283 285 283 277 271 269 267 266 265 264 262 260 259 258 257 257 256 255 255 254 253 252 251 249 248 247 246 245 245 245 246 247 248 249 249 248 247 245 244 243 243 243 243 243 243 243 244 246 246 247
268 266 264 264 264 264 262 260 259 258 257 256 256 256 256 257 258 259 259 259 259 258 257 257 258 260 261 261 263 266 270 273 275 276 278 280 282 285 288 285 277 270 267 266 265 264 263 263 262 260 259 257 256 255 254 253 253 251 250 249 248 246 245 244 243 243 244 245 246 247 248 249 249 248 247 245 244 243 242 242 242 242 242 242 243 245 246
266 264 262 260 260 262 263 261 258 258 258 258 257 257 256 256 258 259 259 258 258 257 257 257 257 257 258 260 264 268 271 273 276 278 280 282 284 287 289 285 276 268 266 265 263 261 261 262 262 261 259 256 254 252 251 250 249 249 248 247 246 245 244 244 243 243 244 245 247 248 249 249 249 248 247 246 245 243 242 241 241 241 241 241 241 243 244
265 263 262 259 258 260 263 263 260 258 257 257 257 257 256 256 257 258 257 256 256 256 257 257 256 255 257 261 265 268 270 274 278 281 284 285 286 288 290 285 275 266 263 261 259 258 259 260 261 261 259 256 254 251 250 249 248 247 246 246 246 246 245 245 245 245 246 248 249 249 249 248 248 247 246 245 245 244 242 241 240 240 240 240 240 240 242
263 261 261 259 258 257 259 260 261 261 259 257 256 257 256 255 255 256 256 256 256 256 256 254 253 254 259 264 266 267 270 276 282 287 290 289 287 288 289 285 274 264 259 257 256 255 256 258 260 262 263 261 259 255 253 251 250 249 248 249 249 248 248 247 247 247 248 248 248 248 248 247 247 246 245 244 243 243 242 240 239 238 238 238 238 239 239
258 256 256 257 258 258 256 255 255 256 256 255 254 254 252 250 250 253 255 256 256 256 254 251 251 255 261 265 265 267 272 278 284 291 294 292 288 286 287 283 273 263 257 255 255 256 257 258 260 262 263 263 262 259 257 255 253 252 251 252 252 252 251 249 247 246 246 246 246 247 247 246 246 245 244 244 243 242 240 239 238 237 236 236 237 237 237
254 250 249 249 252 255 254 251 248 248 250 251 252 252 251 250 253 255 256 255 254 253 251 249 251 257 263 265 266 269 273 279 287 294 297 294 288 285 283 277 269 263 259 258 258 259 261 260 260 261 263 265 265 263 260 258 256 255 255 254 254 253 252 249 245 243 244 244 244 244 245 245 244 243 242 242 242 242 240 238 236 235 235 234 234 235 235
254 249 244 242 244 248 252 251 247 246 247 248 248 249 251 253 254 254 252 250 250 250 251 251 253 258 262 265 267 270 274 280 289 297 299 294 288 286 282 274 265 261 260 261 263 265 265 264 263 265 267 269 267 264 262 262 261 260 258 256 254 252 250 247 244 242 242 242 242 242 242 243 242 241 241 240 241 242 241 239 236 234 233 232 232 233 233
254 249 244 240 239 241 246 248 248 246 244 244 244 246 249 251 252 252 250 248 248 250 252 254 256 259 262 264 267 271 275 282 291 299 299 294 289 286 283 276 268 262 260 262 267 271 272 269 267 267 270 272 270 266 264 265 267 267 263 257 253 250 248 245 242 241 240 241 241 240 240 241 241 240 239 239 239 241 242 241 237 234 232 231 231 230 231
254 246 241 237 235 237 241 246 246 244 242 243 245 246 247 248 250 252 254 253 252 254 257 260 262 263 263 263 266 271 275 282 292 299 298 293 288 284 281 277 273 270 268 268 273 278 280 276 269 264 265 271 274 272 267 264 265 266 264 257 251 247 245 242 241 240 240 241 240 239 239 239 239 239 239 239 240 241 243 242 239 236 233 231 229 229 229
257 243 235 231 231 232 236 241 242 239 237 239 242 244 245 246 248 251 253 254 254 256 260 265 266 264 260 259 263 269 276 285 294 299 298 292 287 281 276 272 272 273 274 275 277 279 281 279 272 266 263 266 271 276 275 268 262 261 261 256 250 245 243 241 240 240 240 241 241 239 238 238 238 238 238 239 241 242 243 243 241 237 233 230 229 227 227
256 240 229 225 226 228 231 234 236 235 232 234 238 242 245 247 250 251 253 255 256 258 261 264 264 260 255 256 262 270 279 289 297 300 298 293 287 281 274 270 270 272 273 275 278 281 283 280 273 267 264 264 268 275 280 276 266 259 256 253 249 246 244 243 243 243 243 243 243 242 241 240 238 238 238 239 239 240 241 242 241 237 233 230 227 225 225
246 229 217 215 220 226 229 231 233 234 235 238 241 244 247 250 251 252 252 251 252 254 258 260 257 252 250 255 263 272 282 292 299 300 297 291 286 281 275 270 270 270 272 276 282 288 290 287 279 270 266 266 268 272 279 281 274 263 255 251 248 246 244 243 244 245 246 247 246 245 243 241 240 239 239 238 237 237 238 238 238 235 231 227 224 223 222
200 189 188 197 209 218 224 227 230 235 239 243 246 248 249 249 247 245 243 243 245 248 251 250 246 244 247 255 265 276 287 296 301 301 296 288 283 278 274 269 268 269 273 279 286 291 294 294 288 279 272 271 272 274 279 283 277 264 253 248 248 247 244 243 244 245 246 248 249 247 244 242 240 239 238 237 236 235 234 233 231 229 226 223 220 219 218
122 135 151 172 192 205 213 221 225 229 234 239 242 243 240 237 236 236 237 237 237 239 239 238 237 240 247 257 268 280 291 299 303 301 294 286 278 273 268 265 265 268 273 280 287 292 294 295 292 285 278 276 276 278 286 291 283 262 247 245 249 250 249 248 248 246 244 245 247 247 245 240 237 236 236 235 233 232 229 225 222 219 217 216 216 216 216
103 109 124 145 163 175 186 196 203 210 219 229 233 230 227 231 238 239 232 225 224 226 228 230 235 242 251 261 275 289 298 302 304 301 294 285 276 268 262 262 265 268 272 280 288 290 290 292 293 287 280 277 275 278 288 296 288 259 243 244 250 253 254 253 250 247 245 244 245 246 245 241 237 234 233 231 230 228 224 218 212 208 207 209 212 215 216
Height
5787 5789 5791 5793 5796 5798 5801 5805 5808 5810 5814 5816 5818 5819 5822 5828 5830 5829 5830 5833 5834 5834 5837 5840 5844 5848 5850 5852 5855 5857 5860 5863 5866 5868 5871 5873 5876 5877 5880 5882 5884 5886 5887 5888 5889 5890 5892 5893 5894 5895 5897 5898 5899 5900 5901 5901 5903 5907 5910 5912 5914 5915 5917 5918 5919 5921 5922 5923 5924 5926 5928 5929 5931 5933 5935 5937 5939 5941 5942 5944 5945 5946 5948 5949 5951 5952 5953
5784 5786 5788 5790 5792 5795 5798 5801 5803 5806 5809 5810 5812 5815 5820 5825 5827 5825 5827 5829 5828 5829 5832 5835 5840 5845 5847 5849 5851 5853 5856 5859 5861 5864 5867 5869 5871 5873 5875 5878 5880 5882 5883 5884 5886 5888 5889 5890 5892 5893 5895 5896 5897 5898 5899 5900 5901 5904 5906 5909 5911 5912 5914 5916 5917 5918 5920 5921 5922 5923 5925 5926 5928 5930 5932 5934 5936 5938 5940 5942 5943 5944 5946 5948 5949 5950 5952
5781 5783 5785 5787 5789 5792 5795 5796 5799 5802 5804 5807 5810 5813 5817 5821 5822 5822 5823 5823 5823 5826 5829 5832 5836 5841 5843 5845 5847 5849 5852 5854 5857 5860 5862 5865 5867 5869 5871 5873 5875 5877 5879 5881 5882 5884 5886 5887 5889 5891 5892 5893 5895 5896 5897 5898 5900 5901 5903 5906 5908 5910 5911 5912 5913 5915 5916 5918 5920 5921 5923 5924 5925 5926 5928 5930 5932 5934 5937 5939 5940 5942 5944 5945 5947 5948 5950
5778 5781 5783 5784 5786 5789 5791 5793 5796 5798 5801 5803 5805 5808 5811 5815 5818 5819 5817 5817 5820 5823 5826 5830 5833 5835 5837 5840 5842 5845 5848 5850 5853 5856 5858 5861 5863 5865 5867 5869 5871 5873 5875 5877 5879 5881 5883 5884 5886 5887 5889 5890 5892 5893 5894 5896 5898 5899 5900 5902 5905 5907 5909 5910 5911 5912 5914 5915 5917 5919 5921 5922 5923 5924 5925 5926 5928 5930 5932 5935 5936 5939 5941 5943 5944 5946 5947
5775 5777 5780 5781 5783 5786 5787 5789 5791 5793 5796 5797 5800 5804 5807 5810 5814 5815 5813 5813 5816 5819 5823 5827 5828 5829 5832 5835 5838 5841 5843 5846 5849 5851 5854 5857 5859 5861 5864 5865 5867 5870 5871 5873 5875 5877 5879 5881 5883 5884 5885 5887 5888 5890 5891 5893 5895 5896 5898 5899 5901 5903 5906 5907 5909 5910 5911 5912 5913 5915 5917 5919 5920 5922 5924 5925 5926 5927 5928 5930 5932 5934 5937 5939 5941 5942 5944
5772 5773 5777 5778 5780 5781 5782 5783 5786 5790 5792 5794 5797 5800 5802 5805 5808 5810 5809 5809 5812 5817 5820 5821 5822 5825 5828 5831 5834 5836 5839 5841 5844 5847 5850 5852 5855 5857 5859 5861 5863 5865 5868 5870 5872 5874 5876 5878 5880 5881 5883 5884 5885 5887 5888 5890 5891 5893 5895 5897 5899 5900 5902 5904 5905 5907 5907 5907 5910 5912 5913 5914 5915 5918 5921 5924 5925 5925 5925 5926 5927 5930 5932 5934 5936 5938 5940
5770 5769 5773 5775 5774 5775 5776 5779 5784 5788 5789 5791 5793 5795 5798 5801 5802 5804 5806 5806 5809 5814 5814 5814 5818 5822 5824 5828 5830 5831 5834 5836 5839 5842 5845 5847 5850 5852 5855 5857 5859 5861 5863 5866 5868 5869 5872 5874 5876 5878 5880 5881 5883 5884 5885 5886 5888 5890 5891 5893 5895 5897 5898 5899 5901 5902 5903 5904 5906 5907 5908 5910 5911 5913 5916 5919 5921 5923 5923 5923 5924 5925 5927 5929 5932 5934 5937
5766 5766 5769 5770 5770 5771 5774 5778 5782 5784 5785 5787 5789 5791 5793 5795 5796 5798 5801 5802 5806 5808 5807 5808 5815 5818 5820 5823 5824 5825 5828 5831 5833 5836 5839 5842 5845 5847 5850 5852 5854 5856 5858 5861 5863 5865 5867 5869 5871 5873 5875 5877 5879 5881 5882 5883 5885 5886 5888 5889 5891 5893 5894 5895 5896 5898 5899 5900 5902 5902 5904 5907 5909 5910 5911 5913 5916 5919 5921 5923 5923 5923 5925 5927 5929 5931 5933
5763 5764 5765 5766 5767 5769 5772 5774 5776 5778 5781 5783 5785 5786 5788 5790 5791 5793 5795 5798 5801 5802 5802 5806 5811 5813 5814 5816 5817 5819 5823 5825 5828 5831 5833 5836 5839 5842 5844 5847 5848 5851 5853 5855 5857 5859 5861 5864 5866 5868 5871 5873 5875 5877 5879 5880 5881 5883 5884 5886 5888 5889 5890 5891 5893 5894 5896 5896 5896 5898 5901 5903 5906 5907 5908 5910 5913 5917 5920 5923 5925 5926 5928 5929 5930 5930 5932
5761 5762 5762 5763 5764 5765 5767 5769 5770 5773 5776 5778 5780 5781 5783 5786 5787 5788 5790 5793 5796 5797 5799 5802 5805 5807 5810 5810 5810 5813 5817 5819 5823 5826 5828 5831 5834 5836 5839 5841 5843 5846 5848 5849 5852 5854 5856 5858 5860 5863 5865 5867 5869 5872 5874 5876 5877 5878 5880 5882 5884 5885 5886 5888 5890 5891 5892 5892 5892 5894 5897 5899 5900 5902 5905 5909 5912 5914 5916 5919 5922 5923 5925 5927 5928 5929 5930
5757 5758 5759 5760 5760 5760 5762 5764 5766 5769 5771 5773 5775 5776 5777 5779 5782 5784 5786 5788 5790 5792 5794 5797 5800 5803 5803 5801 5801 5808 5813 5815 5818 5821 5823 5825 5828 5830 5832 5835 5838 5840 5841 5843 5846 5848 5850 5853 5855 5857 5859 5861 5864 5866 5868 5871 5872 5874 5876 5877 5879 5880 5882 5884 5886 5887 5887 5888 5888 5890 5892 5894 5895 5898 5903 5906 5908 5909 5911 5914 5916 5917 5917 5919 5921 5922 5924
5753 5754 5756 5757 5757 5757 5759 5761 5762 5764 5765 5767 5770 5770 5770 5774 5778 5780 5781 5782 5785 5787 5790 5793 5796 5796 5794 5792 5797 5806 5811 5811 5813 5815 5817 5819 5822 5824 5826 5829 5832 5834 5835 5837 5840 5842 5845 5847 5849 5851 5854 5856 5858 5860 5862 5865 5867 5869 5871 5872 5874 5876 5877 5879 5881 5882 5883 5883 5884 5885 5888 5890 5892 5896 5900 5902 5903 5904 5907 5910 5911 5912 5913 5915 5917 5918 5919
5750 5751 5752 5753 5753 5753 5755 5755 5757 5759 5761 5762 5763 5763 5765 5770 5774 5775 5776 5777 5780 5783 5786 5788 5788 5787 5788 5791 5796 5801 5805 5806 5808 5809 5810 5813 5815 5817 5820 5823 5825 5826 5829 5832 5834 5836 5839 5841 5842 5845 5848 5850 5852 5854 5856 5859 5861 5863 5865 5866 5868 5870 5871 5873 5875 5877 5877 5878 5879 5881 5883 5885 5889 5892 5895 5898 5899 5899 5901 5903 5906 5907 5909 5911 5913 5914 5915
5746 5747 5748 5749 5749 5749 5750 5751 5752 5754 5755 5756 5756 5759 5763 5766 5769 5770 5771 5772 5775 5779 5781 5782 5781 5782 5786 5789 5791 5794 5797 5799 5801 5802 5804 5807 5809 5811 5814 5817 5818 5820 5823 5826 5828 5830 5833 5834 5836 5839 5841 5844 5846 5848 5850 5852 5855 5857 5859 5861 5863 5865 5866 5868 5869 5871 5872 5873 5874 5875 5877 5880 5883 5886 5889 5892 5893 5894 5896 5898 5900 5903 5904 5906 5909 5910 5912
5742 5742 5743 5744 5744 5744 5746 5748 5748 5749 5750 5751 5753 5757 5760 5761 5763 5764 5765 5767 5770 5773 5774 5775 5776 5779 5781 5783 5785 5788 5790 5791 5794 5796 5798 5800 5803 5805 5808 5810 5812 5815 5817 5819 5821 5823 5825 5828 5830 5832 5835 5837 5840 5842 5844 5846 5848 5851 5853 5855 5857 5859 5861 5862 5863 5865 5867 5868 5869 5871 5872 5874 5878 5881 5884 5886 5888 5890 5893 5894 5896 5899 5901 5903 5904 5906 5908
5737 5738 5738 5739 5739 5740 5742 5743 5743 5744 5747 5749 5750 5752 5754 5756 5757 5758 5759 5762 5765 5766 5768 5770 5771 5773 5775 5777 5780 5782 5783 5784 5788 5790 5792 5793 5795 5798 5800 5803 5806 5809 5811 5813 5815 5816 5818 5821 5823 5825 5828 5831 5833 5835 5837 5839 5842 5845 5847 5849 5851 5853 5854 5856 5858 5859 5861 5862 5864 5866 5867 5869 5872 5875 5878 5880 5882 5885 5888 5890 5892 5894 5896 5898 5899 5902 5903
5734 5734 5734 5735 5736 5736 5737 5737 5739 5741 5743 5744 5744 5746 5749 5751 5751 5752 5754 5757 5758 5760 5762 5764 5765 5767 5769 5771 5774 5776 5776 5778 5781 5784 5786 5787 5789 5791 5793 5795 5798 5801 5804 5806 5808 5809 5811 5813 5816 5819 5821 5824 5826 5828 5830 5832 5835 5838 5840 5842 5845 5847 5848 5850 5852 5854 5855 5857 5858 5860 5862 5864 5866 5869 5872 5875 5876 5879 5882 5885 5887 5890 5891 5892 5894 5896 5897
5730 5730 5730 5731 5731 5731 5732 5733 5735 5737 5738 5738 5739 5741 5743 5745 5746 5748 5749 5751 5753 5754 5756 5757 5759 5761 5763 5765 5767 5769 5770 5771 5773 5777 5779 5781 5783 5784 5786 5788 5790 5792 5795 5798 5800 5802 5804 5805 5808 5811 5814 5817 5820 5822 5823 5825 5828 5830 5833 5836 5838 5840 5842 5844 5846 5848 5849 5851 5852 5854 5856 5858 5861 5863 5866 5869 5871 5873 5876 5879 5881 5884 5886 5886 5888 5889 5890
5726 5726 5726 5727 5727 5727 5728 5729 5730 5732 5732 5733 5734 5736 5737 5739 5741 5742 5743 5745 5747 5748 5750 5751 5753 5755 5757 5758 5760 5762 5763 5765 5766 5769 5772 5774 5776 5778 5779 5780 5783 5785 5787 5789 5792 5794 5797 5798 5800 5803 5806 5809 5812 5814 5816 5818 5820 5823 5826 5829 5831 5834 5836 5838 5840 5841 5843 5845 5847 5848 5850 5853 5855 5858 5860 5863 5865 5868 5870 5873 5875 5877 5879 5881 5881 5883 5884
5721 5721 5722 5722 5723 5723 5724 5725 5726 5727 5728 5728 5730 5731 5732 5734 5735 5736 5738 5739 5741 5742 5744 5745 5746 5748 5750 5752 5753 5755 5757 5758 5759 5762 5764 5766 5768 5770 5771 5773 5776 5778 5779 5781 5783 5785 5788 5790 5792 5795 5798 5801 5803 5806 5809 5810 5812 5815 5818 5821 5824 5827 5829 5831 5833 5835 5837 5839 5841 5843 5844 5846 5849 5852 5855 5858 5860 5862 5865 5867 5869 5871 5873 5874 5876 5878 5880
5716 5717 5717 5718 5719 5719 5720 5721 5722 5723 5724 5725 5726 5727 5728 5729 5730 5731 5732 5733 5735 5736 5738 5739 5740 5742 5743 5745 5747 5748 5749 5751 5753 5755 5757 5759 5761 5762 5764 5767 5769 5771 5772 5774 5776 5778 5780 5782 5784 5787 5789 5792 5794 5797 5799 5802 5804 5807 5810 5813 5816 5819 5822 5824 5826 5829 5831 5833 5835 5837 5839 5840 5843 5846 5849 5852 5854 5857 5859 5861 5864 5865 5867 5868 5870 5871 5874
5711 5712 5712 5714 5715 5715 5716 5717 5717 5718 5720 5721 5722 5723 5723 5724 5725 5726 5727 5728 5729 5731 5732 5733 5735 5735 5736 5738 5739 5741 5742 5744 5746 5748 5750 5752 5753 5755 5757 5759 5761 5763 5765 5766 5768 5770 5772 5773 5775 5778 5780 5782 5784 5787 5790 5792 5795 5798 5801 5805 5808 5811 5814 5816 5819 5821 5823 5826 5828 5830 5833 5835 5836 5839 5842 5845 5848 5851 5854 5856 5858 5860 5861 5863 5864 5866 5869
5706 5707 5708 5709 5710 5710 5711 5712 5713 5714 5715 5716 5717 5718 5719 5719 5720 5722 5722 5723 5725 5726 5727 5728 5729 5729 5730 5731 5732 5734 5735 5737 5738 5740 5742 5744 5746 5747 5749 5751 5753 5755 5756 5758 5760 5762 5764 5765 5767 5769 5771 5773 5774 5777 5779 5782 5785 5789 5792 5796 5800 5803 5805 5808 5810 5813 5815 5818 5821 5823 5826 5828 5830 5832 5835 5838 5841 5844 5847 5849 5852 5854 5855 5858 5859 5861 5864
5701 5702 5703 5703 5704 5705 5706 5707 5709 5709 5710 5712 5713 5713 5714 5715 5716 5717 5718 5719 5720 5721 5722 5723 5724 5725 5725 5726 5727 5728 5729 5730 5731 5733 5734 5736 5738 5739 5740 5742 5744 5746 5748 5750 5752 5753 5755 5757 5758 5760 5762 5764 5765 5766 5769 5771 5775 5778 5782 5786 5790 5794 5796 5799 5802 5804 5807 5810 5813 5815 5818 5821 5823 5825 5828 5830 5833 5836 5839 5842 5845 5848 5850 5852 5854 5856 5858
5695 5697 5697 5698 5699 5701 5702 5703 5704 5704 5705 5706 5708 5708 5708 5709 5710 5711 5712 5713 5715 5716 5717 5718 5719 5720 5721 5721 5722 5723 5723 5724 5725 5726 5728 5729 5729 5730 5731 5733 5734 5737 5739 5740 5742 5744 5746 5747 5749 5751 5753 5755 5756 5757 5759 5761 5764 5767 5771 5775 5780 5784 5787 5790 5792 5795 5798 5801 5804 5807 5810 5812 5815 5817 5820 5822 5825 5828 5831 5834 5838 5841 5843 5846 5848 5850 5852
5690 5691 5692 5693 5694 5696 5697 5698 5698 5698 5699 5700 5702 5702 5702 5703 5704 5705 5706 5708 5709 5710 5712 5713 5714 5715 5716 5717 5718 5718 5718 5719 5720 5720 5721 5722 5722 5722 5723 5724 5725 5727 5729 5731 5733 5734 5736 5738 5739 5741 5744 5745 5746 5747 5749 5751 5753 5756 5760 5764 5769 5773 5777 5780 5782 5786 5789 5792 5795 5798 5801 5803 5807 5809 5811 5813 5816 5819 5823 5826 5830 5834 5837 5839 5841 5844 5846
5683 5684 5685 5687 5688 5690 5692 5692 5692 5693 5694 5695 5696 5697 5697 5697 5699 5700 5701 5702 5703 5704 5706 5707 5708 5709 5710 5711 5712 5713 5713 5714 5714 5714 5714 5715 5715 5715 5716 5716 5717 5717 5719 5721 5722 5724 5725 5727 5729 5731 5733 5734 5735 5737 5740 5741 5743 5746 5749 5753 5757 5762 5766 5769 5772 5776 5779 5782 5785 5788 5791 5794 5797 5800 5803 5805 5807 5810 5814 5817 5821 5826 5830 5833 5834 5836 5839
5678 5679 5679 5681 5683 5685 5686 5686 5686 5688 5688 5689 5690 5691 5691 5692 5693 5694 5695 5695 5697 5698 5699 5700 5701 5703 5704 5705 5706 5706 5707 5708 5708 5708 5708 5708 5708 5708 5708 5708 5709 5709 5709 5710 5712 5713 5714 5716 5718 5720 5722 5723 5723 5726 5729 5730 5733 5736 5739 5742 5746 5750 5755 5759 5761 5765 5768 5771 5774 5778 5781 5784 5787 5790 5794 5797 5799 5802 5805 5808 5812 5817 5822 5825 5827 5829 5832
5674 5674 5675 5677 5678 5680 5680 5680 5680 5681 5682 5683 5684 5685 5685 5686 5687 5688 5688 5689 5690 5692 5693 5694 5695 5696 5697 5698 5699 5699 5700 5701 5701 5701 5701 5701 5701 5701 5700 5700 5701 5701 5701 5701 5701 5702 5704 5705 5706 5708 5710 5711 5711 5714 5717 5719 5722 5726 5728 5730 5735 5740 5744 5748 5751 5754 5757 5760 5764 5767 5771 5775 5778 5781 5784 5788 5791 5793 5796 5799 5803 5807 5812 5817 5820 5822 5825
5670 5671 5671 5672 5673 5675 5674 5674 5674 5675 5676 5677 5678 5679 5679 5680 5681 5681 5682 5683 5685 5686 5686 5687 5688 5689 5690 5691 5692 5692 5693 5694 5694 5694 5694 5694 5693 5693 5693 5692 5693 5693 5693 5692 5692 5692 5693 5694 5695 5696 5697 5698 5700 5703 5704 5706 5711 5714 5716 5719 5723 5728 5733 5737 5740 5743 5746 5749 5753 5757 5760 5764 5768 5772 5774 5778 5781 5784 5787 5790 5794 5798 5802 5807 5811 5814 5817
5667 5667 5667 5668 5669 5669 5669 5669 5669 5670 5671 5672 5673 5673 5674 5674 5675 5676 5677 5678 5679 5680 5681 5681 5682 5683 5683 5684 5685 5685 5686 5686 5687 5687 5687 5687 5686 5685 5685 5684 5685 5684 5684 5684 5683 5683 5683 5683 5684 5684 5685 5685 5688 5691 5692 5695 5698 5702 5705 5708 5712 5717 5721 5725 5728 5732 5735 5739 5742 5746 5749 5753 5757 5761 5765 5768 5771 5774 5777 5780 5785 5789 5792 5796 5801 5805 5808
5663 5663 5664 5664 5664 5664 5665 5665 5665 5665 5666 5667 5668 5668 5669 5669 5670 5670 5671 5672 5673 5674 5675 5676 5676 5677 5677 5678 5678 5679 5679 5679 5680 5680 5680 5679 5678 5677 5676 5676 5676 5675 5675 5675 5674 5673 5673 5673 5673 5673 5673 5674 5676 5678 5681 5683 5687 5690 5693 5696 5699 5704 5708 5711 5714 5719 5724 5728 5731 5735 5738 5742 5745 5749 5754 5758 5761 5764 5766 5770 5775 5780 5783 5787 5791 5796 5799
5659 5660 5660 5660 5660 5660 5660 5660 5660 5660 5661 5662 5662 5663 5663 5664 5664 5665 5666 5667 5668 5669 5670 5670 5671 5671 5672 5672 5672 5672 5672 5673 5673 5673 5672 5671 5670 5669 5668 5667 5666 5666 5666 5665 5664 5664 5663 5663 5663 5663 5662 5663 5665 5667 5669 5672 5675 5678 5681 5683 5686 5690 5694 5698 5701 5705 5710 5714 5719 5724 5728 5731 5733 5737 5742 5747 5751 5753 5757 5761 5765 5770 5774 5778 5782 5785 5789
5655 5656 5656 5656 5656 5656 5655 5655 5655 5656 5656 5656 5657 5658 5658 5658 5659 5660 5661 5662 5663 5663 5664 5664 5665 5665 5665 5666 5666 5666 5666 5666 5666 5666 5665 5664 5663 5662 5660 5659 5658 5657 5656 5656 5655 5654 5653 5653 5653 5653 5653 5655 5656 5657 5658 5661 5663 5665 5668 5671 5673 5677 5681 5684 5688 5692 5696 5701 5706 5711 5715 5719 5722 5726 5730 5734 5738 5742 5746 5751 5756 5759 5763 5768 5772 5776 5779
5652 5652 5652 5652 5652 5651 5651 5651 5651 5651 5651 5652 5652 5653 5653 5653 5654 5655 5656 5656 5657 5657 5657 5658 5659 5659 5659 5659 5660 5660 5660 5660 5660 5659 5658 5657 5656 5654 5653 5651 5650 5648 5647 5647 5645 5644 5644 5643 5643 5643 5644 5646 5646 5647 5648 5650 5651 5653 5656 5659 5661 5664 5668 5672 5675 5679 5684 5689 5693 5696 5700 5705 5710 5714 5717 5720 5725 5731 5736 5741 5746 5750 5753 5757 5761 5765 5768
5648 5648 5648 5647 5647 5647 5646 5646 5647 5647 5647 5647 5647 5647 5648 5648 5649 5649 5650 5651 5651 5651 5652 5652 5653 5653 5653 5654 5654 5654 5654 5654 5653 5652 5651 5650 5649 5648 5646 5644 5642 5640 5639 5638 5637 5635 5635 5635 5635 5634 5635 5637 5637 5638 5639 5640 5640 5643 5645 5647 5650 5653 5657 5660 5664 5668 5672 5676 5680 5682 5686 5691 5696 5701 5705 5710 5715 5720 5725 5730 5735 5739 5743 5746 5750 5754 5759
5644 5643 5643 5642 5642 5642 5641 5641 5642 5642 5642 5642 5642 5642 5642 5643 5643 5644 5645 5645 5645 5646 5646 5647 5647 5647 5648 5648 5648 5648 5648 5648 5647 5646 5645 5644 5643 5641 5639 5636 5634 5632 5631 5630 5629 5628 5628 5627 5627 5627 5628 5629 5630 5630 5631 5631 5632 5634 5636 5637 5640 5644 5647 5651 5654 5658 5661 5665 5668 5671 5674 5678 5682 5687 5692 5698 5703 5707 5711 5716 5721 5726 5732 5736 5740 5744 5749
5638 5637 5637 5637 5637 5636 5635 5635 5636 5636 5636 5636 5636 5637 5637 5638 5638 5639 5640 5640 5640 5641 5641 5641 5642 5642 5642 5642 5642 5642 5642 5642 5641 5640 5639 5638 5637 5635 5632 5629 5627 5625 5624 5623 5623 5622 5622 5621 5620 5621 5621 5622 5622 5623 5624 5624 5625 5626 5628 5630 5633 5636 5639 5642 5645 5649 5652 5655 5658 5660 5664 5667 5670 5674 5680 5686 5690 5694 5698 5703 5708 5714 5721 5726 5730 5733 5738
5631 5630 5630 5630 5630 5629 5628 5628 5629 5629 5630 5630 5630 5631 5632 5632 5633 5634 5634 5635 5635 5635 5636 5636 5637 5637 5637 5637 5637 5637 5637 5636 5635 5634 5634 5632 5630 5628 5626 5623 5621 5619 5618 5618 5617 5617 5616 5615 5615 5615 5616 5616 5616 5617 5617 5618 5618 5620 5622 5624 5626 5629 5631 5634 5637 5640 5643 5645 5648 5651 5654 5657 5659 5663 5668 5673 5676 5680 5685 5691 5696 5702 5708 5714 5718 5723 5727
5622 5622 5622 5623 5623 5622 5622 5622 5622 5623 5623 5624 5625 5625 5626 5627 5628 5628 5629 5629 5630 5630 5631 5631 5631 5632 5632 5632 5632 5632 5631 5631 5630 5629 5628 5626 5624 5622 5620 5617 5615 5614 5613 5613 5612 5612 5611 5611 5610 5610 5610 5610 5611 5611 5611 5612 5613 5614 5616 5617 5619 5622 5624 5627 5629 5632 5635 5637 5639 5642 5645 5647 5649 5652 5656 5660 5663 5667 5673 5678 5684 5690 5695 5701 5706 5712 5716
5614 5614 5614 5614 5615 5615 5615 5616 5616 5617 5617 5619 5619 5620 5621 5622 5623 5623 5624 5624 5625 5625 5626 5626 5627 5627 5627 5627 5627 5627 5626 5626 5625 5624 5622 5620 5618 5616 5614 5612 5609 5609 5608 5608 5607 5607 5607 5606 5605 5605 5604 5604 5604 5605 5605 5606 5607 5608 5610 5611 5612 5614 5616 5618 5621 5624 5627 5629 5630 5632 5634 5637 5639 5642 5645 5648 5652 5655 5660 5666 5671 5677 5683 5688 5694 5700 5705
5604 5605 5605 5606 5607 5608 5608 5610 5611 5612 5612 5613 5614 5614 5615 5616 5617 5618 5619 5619 5620 5620 5621 5621 5622 5622 5622 5622 5622 5622 5622 5621 5620 5618 5616 5614 5612 5611 5609 5607 5605 5604 5604 5603 5603 5603 5602 5601 5601 5600 5599 5598 5598 5599 5599 5600 5601 5602 5603 5604 5605 5607 5608 5609 5612 5615 5617 5618 5620 5622 5625 5627 5630 5633 5636 5638 5641 5645 5649 5654 5659 5665 5670 5675 5681 5687 5694
5594 5595 5596 5598 5599 5600 5601 5602 5604 5605 5605 5606 5607 5608 5609 5610 5612 5613 5614 5614 5615 5616 5616 5617 5617 5618 5618 5618 5618 5617 5617 5616 5615 5613 5611 5608 5606 5605 5604 5603 5601 5600 5599 5599 5598 5598 5598 5597 5596 5595 5594 5593 5593 5593 5593 5593 5594 5595 5596 5596 5597 5598 5599 5601 5603 5605 5606 5608 5610 5613 5616 5618 5620 5623 5626 5629 5632 5636 5639 5643 5647 5652 5657 5662 5668 5675 5682
5582 5584 5586 5588 5590 5592 5593 5594 5596 5598 5599 5600 5601 5602 5604 5605 5606 5607 5608 5609 5610 5611 5612 5613 5613 5613 5613 5613 5613 5613 5612 5612 5610 5608 5606 5603 5601 5599 5599 5598 5597 5596 5595 5595 5594 5594 5593 5592 5591 5590 5588 5587 5587 5587 5587 5587 5588 5588 5588 5589 5589 5590 5591 5592 5594 5596 5597 5599 5602 5605 5607 5609 5611 5614 5617 5621 5624 5627 5629 5632 5636 5640 5645 5650 5656 5662 5669
5571 5574 5577 5579 5582 5584 5586 5587 5588 5590 5592 5594 5596 5597 5598 5600 5601 5602 5604 5605 5606 5607 5607 5608 5608 5609 5609 5609 5609 5608 5608 5607 5606 5604 5601 5599 5597 5595 5594 5593 5593 5592 5591 5591 5590 5589 5588 5587 5586 5585 5584 5583 5582 5582 5582 5582 5582 5582 5582 5582 5582 5583 5584 5585 5587 5589 5590 5593 5595 5598 5599 5601 5603 5606 5609 5613 5616 5618 5620 5623 5626 5630 5634 5639 5644 5650 5657
5562 5564 5568 5571 5574 5577 5579 5580 5581 5583 5586 5588 5590 5592 5593 5594 5596 5597 5599 5600 5601 5602 5602 5603 5604 5604 5604 5605 5604 5604 5604 5603 5601 5599 5597 5595 5593 5592 5590 5589 5589 5588 5588 5587 5586 5585 5583 5582 5581 5580 5580 5579 5578 5578 5577 5577 5577 5577 5576 5576 5577 5578 5579 5580 5581 5583 5585 5587 5589 5591 5592 5594 5596 5600 5602 5605 5607 5610 5612 5615 5618 5621 5624 5629 5634 5640 5647
5555 5557 5560 5564 5567 5570 5573 5575 5576 5578 5581 5583 5585 5586 5588 5589 5591 5592 5594 5595 5597 5597 5598 5598 5599 5599 5600 5600 5600 5600 5599 5598 5596 5595 5593 5591 5589 5588 5587 5586 5585 5585 5584 5583 5582 5581 5579 5578 5577 5576 5576 5575 5575 5575 5574 5573 5572 5572 5572 5572 5573 5573 5574 5575 5577 5578 5580 5581 5583 5585 5586 5588 5590 5593 5595 5598 5600 5602 5605 5607 5609 5612 5615 5620 5625 5630 5636
5550 5552 5555 5559 5563 5566 5569 5571 5573 5575 5577 5579 5580 5581 5583 5585 5586 5588 5589 5591 5592 5593 5594 5594 5595 5595 5596 5596 5596 5596 5595 5593 5592 5590 5588 5587 5585 5584 5583 5583 5582 5581 5580 5579 5578 5577 5576 5575 5574 5573 5572 5572 5572 5572 5571 5570 5569 5568 5568 5569 5569 5569 5570 5571 5572 5573 5574 5576 5577 5579 5580 5582 5584 5586 5588 5591 5593 5595 5597 5600 5602 5604 5608 5612 5617 5622 5628
5548 5550 5553 5558 5561 5564 5567 5569 5571 5572 5574 5575 5576 5578 5580 5581 5582 5584 5585 5586 5587 5589 5590 5591 5591 5591 5592 5592 5592 5592 5591 5589 5588 5586 5584 5583 5581 5580 5580 5579 5579 5578 5577 5576 5575 5574 5573 5571 5570 5569 5569 5569 5569 5569 5568 5567 5566 5565 5565 5565 5566 5566 5567 5567 5568 5568 5569 5570 5571 5572 5574 5575 5577 5579 5581 5583 5585 5588 5590 5592 5595 5597 5601 5606 5611 5616 5622
5549 5551 5555 5558 5560 5562 5564 5566 5568 5569 5571 5572 5573 5575 5576 5577 5578 5580 5581 5582 5583 5585 5586 5586 5587 5588 5588 5589 5588 5588 5587 5585 5584 5582 5581 5579 5578 5577 5576 5576 5575 5575 5574 5573 5572 5571 5570 5568 5567 5566 5566 5566 5566 5566 5565 5565 5563 5562 5562 5562 5562 5563 5563 5563 5564 5564 5564 5565 5565 5566 5567 5569 5570 5572 5574 5577 5579 5581 5583 5586 5588 5592 5596 5600 5605 5611 5616
5553 5554 5556 5558 5560 5561 5563 5565 5566 5567 5569 5569 5570 5571 5573 5574 5575 5577 5578 5578 5580 5581 5582 5583 5584 5584 5585 5585 5585 5584 5583 5581 5580 5578 5577 5576 5575 5574 5573 5573 5572 5572 5571 5570 5569 5568 5567 5566 5565 5564 5563 5563 5563 5563 5562 5562 5560 5559 5559 5559 5559 5559 5559 5559 5559 5559 5559 5560 5560 5561 5561 5562 5564 5566 5568 5571 5573 5575 5577 5580 5583 5586 5591 5596 5601 5606 5611
5556 5557 5558 5559 5560 5562 5563 5564 5565 5566 5567 5567 5568 5569 5571 5572 5573 5574 5574 5575 5576 5577 5578 5579 5580 5581 5581 5581 5581 5580 5579 5577 5576 5574 5573 5572 5571 5571 5571 5570 5570 5569 5568 5568 5567 5566 5565 5564 5563 5562 5561 5561 5561 5560 5560 5559 5558 5557 5556 5556 5556 5555 5555 5554 5554 5554 5554 5555 5555 5556 5556 5558 5559 5561 5563 5565 5568 5570 5572 5574 5578 5581 5586 5591 5596 5602 5607